Regional Weather Roundup
Issued by NWS

Home | Current Version | Previous Version | Graphics & Text | Print | Product List | Glossary On
Versions: 1 2 3 4 5 6 7 8 9 10 11 12 13 14 15 16 17 18 19 20 21 22 23 24 25 26 27 28 29 30 31 32 33 34 35 36 37 38 39 40 41 42 43 44 45 46 47 48 49 50
000
ASUS43 KLMK 060610
RWRKY
KENTUCKY REGIONAL WEATHER ROUNDUP
NATIONAL WEATHER SERVICE LOUISVILLE KY
100 AM EST TUE DEC 06 2016

NOTE "FAIR" INDICATES FEW OR NO CLOUDS BELOW 12,000 FEET
WITH NO SIGNIFICANT WEATHER AND/OR OBSTRUCTIONS TO VISIBILITY.

KYZ001>023-026-027-061>063-070>075-060700-
WESTERN AND SOUTH CENTRAL KENTUCKY

CITY           SKY/WX    TMP DP  RH WIND       PRES   REMARKS
PADUCAH        LGT RAIN  42  38  85 NE6       29.74F FOG
HENDERSON      CLOUDY    43  36  75 E7        29.77F
OWENSBORO      CLOUDY    44  38  79 E6        29.78F
HOPKINSVILLE   DRIZZLE   44  44 100 E5        29.73F FOG
BOWLING GREEN  CLOUDY    46  42  86 CALM      29.78R
GLASGOW        CLOUDY    46  42  86 E5        29.75F
$$

KYZ024-025-028>034-038-045-046-053-060700-
NORTH CENTRAL KENTUCKY

CITY           SKY/WX    TMP DP  RH WIND       PRES   REMARKS
LOUISVILLE/SDF LGT RAIN  45  36  70 E5        29.80F
LOUISVILLE/LOU LGT RAIN  45  36  70 E7        29.80F
FORT KNOX      CLOUDY    43  37  81 NE7       29.75F
$$

KYZ035>037-039>044-047>052-055>060-089>105-060700-
NORTHEAST KENTUCKY

CITY           SKY/WX    TMP DP  RH WIND       PRES   REMARKS
LEXINGTON      CLOUDY    44  35  70 E12       29.81F
COVINGTON      CLOUDY    40  33  76 NE10      29.86F WCI  33
FRANKFORT      CLOUDY    44  35  70 E10       29.81F
$$

KYZ054-064>069-076>088-106>120-060700-
SOUTHEAST KENTUCKY

CITY           SKY/WX    TMP DP  RH WIND       PRES   REMARKS
JACKSON        CLOUDY    44  35  70 VRB6      29.81F
LONDON         CLOUDY    47  38  71 N3        29.81S
SOMERSET       CLOUDY    45  39  81 E5        29.80F
MIDDLESBORO    CLOUDY    52  45  78 CALM      29.82S
MONTICELLO     CLOUDY    48  43  81 VRB6      29.79F
$$





USA.gov is the U.S. government's official web portal to all federal, state and local government web resources and services.